Flag for Russia Weather past 2 weeks in Chelyabinsk, Russia

Now
57 °F

Sprinkles. Partly sunny.


Feels Like: 57 °F
Forecast: 46 / 58 °F
Wind: 3 mph from West

Location: Chelyabinsk-Balandino

Current Time: Jul 3, 2015 at 11:06:50 PM

Latest Report: Jul 3, 2015 at 10:30 PM


Visibility: 3 mi

Pressure: 29.68 "Hg

Humidity: 100%

Dew point: 57 °F

Location of ChelyabinskLocation

Historic Weather in Chelyabinsk — Graph

°F

Chelyabinsk temperature yesterday

Maximum temperature yesterday: 72 °F (at 1:00 PM)
Minimum temperature yesterday: 61 °F (at 9:30 PM)
Average temperature yesterday: 66 °F

Past Weeks' High & Low Weather Summary

 TemperatureHumidityPressure
High91 °F (Jun 23, 4:00 PM)100% (Jun 20, 2:00 AM)30.15 "Hg (Jun 20, 2:00 AM)
Low55 °F (Jul 3, 3:00 AM)25% (Jun 28, 3:00 PM)29.53 "Hg (Jul 2, 9:30 AM)
Average73 °F68%29.89 "Hg
* Reported Jun 18 10:00 PM — Jul 3 10:00 PM, Chelyabinsk, Weather by CustomWeather, © 2015

Note: Actual official high and low records may vary slightly from our data, if they occured in-between our weather recording intervals... More about our weather records

Advertising

Chelyabinsk weather history for previous 24 hours

 ConditionsComfort  
Time TempWeatherWind HumidityBarometerVisibility
10:00 PM
Fri, Jul 3
57 °FPartly sunny.6 mph94%29.68 "HgN/A
9:30 PM57 °FPartly sunny.3 mph94%29.68 "HgN/A
9:00 PM57 °FSprinkles. Fog.6 mph94%29.65 "Hg3 mi
8:30 PM59 °FSprinkles. Partly sunny.13 mph82%29.68 "Hg4 mi
8:00 PM64 °FPartly sunny.10 mph64%29.65 "HgN/A
7:30 PM64 °FScattered clouds.6 mph60%29.65 "HgN/A
7:00 PM66 °FScattered clouds.6 mph52%29.65 "HgN/A
6:30 PM68 °FScattered clouds.3 mph49%29.68 "HgN/A
6:00 PM68 °FScattered clouds.6 mph46%29.68 "HgN/A
5:30 PM70 °FScattered clouds.8 mph40%29.68 "HgN/A
5:00 PM70 °FScattered clouds.10 mph40%29.68 "HgN/A
4:30 PM70 °FScattered clouds.8 mph43%29.68 "HgN/A
4:00 PM70 °FScattered clouds.10 mph43%29.68 "HgN/A
3:30 PM68 °FScattered clouds.10 mph43%29.68 "HgN/A
3:00 PM68 °FScattered clouds.13 mph46%29.71 "HgN/A
2:30 PM66 °FScattered clouds.15 mph49%29.71 "HgN/A
2:00 PM66 °FScattered clouds.15 mph52%29.71 "HgN/A
1:30 PM66 °FScattered clouds.15 mph52%29.71 "HgN/A
1:00 PM64 °FScattered clouds.15 mph56%29.68 "HgN/A
12:30 PM64 °FScattered clouds.17 mph60%29.68 "HgN/A
12:00 PM63 °FScattered clouds.17 mph59%29.68 "HgN/A
11:30 AM59 °FPartly sunny.13 mph72%29.68 "HgN/A
10:30 AM59 °FPartly sunny.20 mph63%29.68 "HgN/A
10:00 AM57 °FPartly sunny.15 mph72%29.68 "HgN/A
9:30 AM55 °FPartly sunny.17 mph82%29.68 "HgN/A
9:00 AM57 °FPartly sunny.13 mph82%29.65 "HgN/A
8:30 AM57 °FPartly sunny.13 mph88%29.65 "HgN/A
7:30 AM55 °FPartly sunny.13 mph94%29.62 "HgN/A
7:00 AM55 °FSprinkles. Fog.10 mph94%29.62 "Hg3 mi
6:30 AM55 °FSprinkles. Partly sunny.10 mph94%29.62 "Hg2 mi
6:00 AM55 °FSprinkles. Passing clouds.15 mph88%29.62 "Hg3 mi
5:30 AM55 °FSprinkles. Passing clouds.13 mph88%29.62 "Hg2 mi
5:00 AM55 °FPassing clouds.13 mph88%29.59 "HgN/A
4:30 AM55 °FPassing clouds.10 mph88%29.59 "HgN/A
4:00 AM55 °FPassing clouds.10 mph88%29.59 "HgN/A
3:30 AM55 °FPassing clouds.10 mph88%29.59 "HgN/A
3:00 AM55 °FPassing clouds.10 mph94%29.59 "HgN/A
2:30 AM57 °FPassing clouds.15 mph88%29.59 "HgN/A
2:00 AM57 °FSprinkles. Fog.8 mph100%29.59 "Hg2 mi
1:30 AM57 °FSleet. Overcast.13 mph100%29.59 "Hg1 mi
1:00 AM59 °FSprinkles. Passing clouds.10 mph88%29.56 "Hg1 mi
12:30 AM61 °FSprinkles. Passing clouds.13 mph83%29.56 "Hg3 mi
12:00 AM63 °FPassing clouds.13 mph77%29.56 "HgN/A
11:30 PM
Thu, Jul 2
63 °FPartly sunny.15 mph77%29.56 "HgN/A
11:00 PM63 °FPartly sunny.15 mph77%29.56 "HgN/A
Weather by CustomWeather, © 2015

See weather overviewHow to use our weather pages